EXPRESS 80

Last updated on Mon Sep 21 2026 00:03:01 GMT+0000 (Coordinated Universal Time)

1 45986U 20053B 26263.15064726 -.00000172 00000+0 00000+0 0 9991 2 45986 0.0242 175.9861 0070018 61.1971 256.3982 1.00401241 22596
UTC large
Height (km)
Speed (km/s)
/
Latitude / Longitude
Inclination (degrees)
Orbital Period (minutes)
Azimuth
Elevation
Range (km)
Doppler Factor

Next 0 passes for location: London (51.5072 / 0.1276)

No passes found over London.
EXPRESS 80